Hourly Data Report for July 10, 2021

KUGLUKTUK A
NUNAVUT
Current Station Operator: NAVCAN

67°49'00.000" N
115°08'38.000" W
22.60 m
2300903
71938
YCO

Download Data

Hourly Data (July 2021)
Hourly Data Report for July 10, 2021
TIME
LST
Temp Definition
°C
Dew Point Definition
°C
Rel Hum Definition
%
Precip. Amount Definition
mm

Wind Dir Definition
10's deg

Wind Spd Definition
km/h
Visibility Definition
km
Stn Press Definition
kPa
Hmdx Definition


Wind Chill Definition


Weather Definition


00:00 15.8 10.2 69   24 40 24.1 100.07     LegendNANA
01:00 13.6 10.1 79   23 26 24.1 100.11     LegendNANA
02:00 13.0 9.5 79   23 26 24.1 100.16     Clear
03:00 12.8 9.7 81   24 30 24.1 100.20     LegendNANA
04:00 13.2 9.5 78   24 31 24.1 100.24     LegendNANA
05:00 14.4 9.6 73   24 27 24.1 100.26     Mainly Clear
06:00 15.3 10.1 71   24 37 24.1 100.28     LegendNANA
07:00 16.0 10.0 67   25 34 24.1 100.27     LegendNANA
08:00 17.1 9.6 61   27 35 24.1 100.29     Mainly Clear
09:00 16.8 9.7 63   28 30 24.1 100.33     LegendNANA
10:00 17.8 10.0 60   27 36 24.1 100.36     LegendNANA
11:00 19.1 9.5 53   29 35 24.1 100.37     Mostly Cloudy
12:00 19.5 9.9 53   31 34 24.1 100.39     LegendNANA
13:00 17.3 11.2 67   33 24 24.1 100.42     LegendNANA
14:00 18.4 11.6 64   33 24 24.1 100.45     Mainly Clear
15:00 16.0 10.3 69   2 18 24.1 100.53     LegendNANA
16:00 15.4 10.6 73   1 20 24.1 100.62     LegendNANA
17:00 14.6 10.1 74   1 20 24.1 100.65     Mainly Clear
18:00 14.1 9.4 73   4 16 24.1 100.68     LegendNANA
19:00 13.5 9.2 75   5 14 24.1 100.70     LegendNANA
20:00 12.9 8.8 76   4 18 24.1 100.71     Mainly Clear
21:00 11.4 8.7 83   5 12 24.1 100.72     LegendNANA
22:00 10.8 8.6 86   3 13 24.1 100.75     LegendNANA
23:00 9.9 8.2 89   3 8 24.1 100.74     Mainly Clear

Notes on Data Quality.

Legend

  • E = Estimated
  • M = Missing
  • NA = Not Available*
  • [empty] = Indicates an unobserved value
Date modified: